"Sample Date","Sample Time","Sample Value","Units","Flow Rate","Sample Interval","Number Channels","Micron Size 0","Counts/Channel 0","Micron Size 1","Counts/Channel 1","Micron Size 2","Counts/Channel 2","Micron Size 3","Counts/Channel 3","Micron Size 4","Counts/Channel 4","Micron Size 5","Counts/Channel 5","Micron Size 6","Counts/Channel 6","Micron Size 7","Counts/Channel 7","Micron Size 8","Counts/Channel 8","Micron Size 9","Counts/Channel 9","Micron Size 10","Counts/Channel 10","Micron Size 11","Counts/Channel 11","Micron Size 12","Counts/Channel 12","Micron Size 13","Counts/Channel 13","Micron Size 14","Counts/Channel 14","Micron Size 15","Counts/Channel 15","Micron Size 16","Counts/Channel 16","Micron Size 17","Counts/Channel 17","Micron Size 18","Counts/Channel 18","Micron Size 19","Counts/Channel 19","Micron Size 20","Counts/Channel 20","Micron Size 21","Counts/Channel 21","Micron Size 22","Counts/Channel 22","Micron Size 23","Counts/Channel 23","Micron Size 24","Counts/Channel 24","Micron Size 25","Counts/Channel 25","Micron Size 26","Counts/Channel 26","Micron Size 27","Counts/Channel 27","Micron Size 28","Counts/Channel 28","Micron Size 29","Counts/Channel 29","Micron Size 30","Counts/Channel 30","Micron Size 31","Counts/Channel 31"
"03/09/08","01:00:03",239598.000,"cc",28287.557,6.00,6,0.100,211498.000,0.200,23367.000,0.300,2476.000,0.500,1721.000,1.000,536.000,5.000,0
"03/09/08","01:00:09",250904.000,"cc",28344.897,6.00,6,0.100,221876.000,0.200,24592.000,0.300,2363.000,0.500,1578.000,1.000,495.000,5.000,0
"03/09/08","01:00:15",228149.000,"cc",28283.315,6.00,6,0.100,202328.000,0.200,21926.000,0.300,2031.000,0.500,1403.000,1.000,461.000,5.000,0
"03/09/08","01:00:21",187063.000,"cc",28304.535,6.00,6,0.100,165468.000,0.200,17443.000,0.300,2094.000,0.500,1555.000,1.000,503.000,5.000,0
"03/09/08","01:00:27",175121.000,"cc",28333.096,6.00,6,0.100,155152.000,0.200,16093.000,0.300,1947.000,0.500,1498.000,1.000,431.000,5.000,0
"03/09/08","01:00:33",140053.000,"cc",28283.836,6.00,6,0.100,124293.000,0.200,12655.000,0.300,1537.000,0.500,1232.000,1.000,336.000,5.000,0
"03/09/08","01:00:39",118403.000,"cc",28262.020,6.00,6,0.100,104343.000,0.200,10638.000,0.300,1650.000,0.500,1349.000,1.000,423.000,5.000,0
"03/09/08","01:00:45",86424.000,"cc",28350.981,6.00,6,0.100,76045.000,0.200,7601.000,0.300,1296.000,0.500,1112.000,1.000,370.000,5.000,0
"03/09/08","01:00:51",81440.000,"cc",28330.279,6.00,6,0.100,71901.000,0.200,6980.000,0.300,1161.000,0.500,1084.000,1.000,314.000,5.000,0
"03/09/08","01:00:57",94143.000,"cc",28275.709,6.00,6,0.100,82555.000,0.200,8324.000,0.300,1489.000,0.500,1357.000,1.000,418.000,5.000,0
"03/09/08","01:01:03",98456.000,"cc",28262.406,6.00,6,0.100,85430.000,0.200,8923.000,0.300,1848.000,0.500,1734.000,1.000,521.000,5.000,0
"03/09/08","01:01:09",103088.000,"cc",28375.309,6.00,6,0.100,89508.000,0.200,9487.000,0.300,1811.000,0.500,1748.000,1.000,534.000,5.000,0
"03/09/08","01:01:15",84789.000,"cc",28332.029,6.00,6,0.100,74328.000,0.200,7355.000,0.300,1446.000,0.500,1274.000,1.000,386.000,5.000,0
"03/09/08","01:01:21",102076.000,"cc",28302.065,6.00,6,0.100,90258.000,0.200,8816.000,0.300,1423.000,0.500,1224.000,1.000,355.000,5.000,0
"03/09/08","01:01:27",89161.000,"cc",28408.945,6.00,6,0.100,79039.000,0.200,7466.000,0.300,1186.000,0.500,1095.000,1.000,375.000,5.000,0
"03/09/08","01:01:33",91090.000,"cc",28326.990,6.00,6,0.100,80525.000,0.200,7756.000,0.300,1261.000,0.500,1192.000,1.000,356.000,5.000,0
"03/09/08","01:01:39",76877.000,"cc",28327.322,6.00,6,0.100,68068.000,0.200,6365.000,0.300,1143.000,0.500,985.000,1.000,316.000,5.000,0
"03/09/08","01:01:45",94178.000,"cc",28306.639,6.00,6,0.100,83233.000,0.200,8046.000,0.300,1316.000,0.500,1206.000,1.000,377.000,5.000,0
"03/09/08","01:01:51",82776.000,"cc",28281.641,6.00,6,0.100,73352.000,0.200,6869.000,0.300,1169.000,0.500,1070.000,1.000,316.000,5.000,0
"03/09/08","01:01:57",148717.000,"cc",28312.994,6.00,6,0.100,132337.000,0.200,13053.000,0.300,1610.000,0.500,1303.000,1.000,414.000,5.000,0
"03/09/08","01:02:03",161076.000,"cc",28293.432,6.00,6,0.100,143223.000,0.200,14301.000,0.300,1682.000,0.500,1465.000,1.000,405.000,5.000,0
"03/09/08","01:02:09",123599.000,"cc",28323.012,6.00,6,0.100,109588.000,0.200,10607.000,0.300,1606.000,0.500,1355.000,1.000,443.000,5.000,0
"03/09/08","01:02:15",169995.000,"cc",28321.043,6.00,6,0.100,151614.000,0.200,14812.000,0.300,1736.000,0.500,1430.000,1.000,403.000,5.000,0
"03/09/08","01:02:21",184699.000,"cc",28353.125,6.00,6,0.100,164972.000,0.200,16212.000,0.300,1780.000,0.500,1365.000,1.000,370.000,5.000,0
"03/09/08","01:02:27",171206.000,"cc",28322.008,6.00,6,0.100,151326.000,0.200,15574.000,0.300,2080.000,0.500,1735.000,1.000,491.000,5.000,0
"03/09/08","01:02:33",150826.000,"cc",28334.000,6.00,6,0.100,133124.000,0.200,13481.000,0.300,2013.000,0.500,1721.000,1.000,487.000,5.000,0
"03/09/08","01:02:39",116478.000,"cc",28326.785,6.00,6,0.100,103381.000,0.200,9922.000,0.300,1524.000,0.500,1264.000,1.000,387.000,5.000,0
"03/09/08","01:02:45",98128.000,"cc",28294.320,6.00,6,0.100,87429.000,0.200,8040.000,0.300,1218.000,0.500,1089.000,1.000,352.000,5.000,0
"03/09/08","01:02:51",100560.000,"cc",28316.289,6.00,6,0.100,89317.000,0.200,8496.000,0.300,1262.000,0.500,1140.000,1.000,345.000,5.000,0
"03/09/08","01:02:57",107517.000,"cc",28322.826,6.00,6,0.100,95598.000,0.200,9133.000,0.300,1309.000,0.500,1114.000,1.000,363.000,5.000,0
"03/09/08","01:03:03",120310.000,"cc",28313.408,6.00,6,0.100,106824.000,0.200,10307.000,0.300,1442.000,0.500,1311.000,1.000,426.000,5.000,0
"03/09/08","01:03:09",116483.000,"cc",28292.816,6.00,6,0.100,103333.000,0.200,9954.000,0.300,1434.000,0.500,1332.000,1.000,430.000,5.000,0
"03/09/08","01:03:15",116445.000,"cc",28293.436,6.00,6,0.100,103540.000,0.200,9852.000,0.300,1433.000,0.500,1216.000,1.000,404.000,5.000,0
"03/09/08","01:03:21",108312.000,"cc",28344.861,6.00,6,0.100,96291.000,0.200,9154.000,0.300,1331.000,0.500,1200.000,1.000,336.000,5.000,0
"03/09/08","01:03:27",105555.000,"cc",28319.199,6.00,6,0.100,93416.000,0.200,8952.000,0.300,1476.000,0.500,1339.000,1.000,372.000,5.000,0
"03/09/08","01:03:33",88995.000,"cc",28314.506,6.00,6,0.100,78836.000,0.200,7400.000,0.300,1290.000,0.500,1123.000,1.000,346.000,5.000,0
"03/09/08","01:03:39",98867.000,"cc",28324.330,6.00,6,0.100,87435.000,0.200,8494.000,0.300,1356.000,0.500,1236.000,1.000,346.000,5.000,0
"03/09/08","01:03:45",113984.000,"cc",28290.609,6.00,6,0.100,100956.000,0.200,9807.000,0.300,1494.000,0.500,1308.000,1.000,419.000,5.000,0
"03/09/08","01:03:51",105643.000,"cc",28322.711,6.00,6,0.100,93735.000,0.200,8970.000,0.300,1330.000,0.500,1248.000,1.000,360.000,5.000,0
"03/09/08","01:03:57",101926.000,"cc",28317.627,6.00,6,0.100,90295.000,0.200,8744.000,0.300,1340.000,0.500,1193.000,1.000,354.000,5.000,0
"03/09/08","01:04:03",134271.000,"cc",28334.604,6.00,6,0.100,119179.000,0.200,11780.000,0.300,1529.000,0.500,1365.000,1.000,418.000,5.000,0
"03/09/08","01:04:09",122116.000,"cc",28299.760,6.00,6,0.100,108270.000,0.200,10598.000,0.300,1537.000,0.500,1296.000,1.000,415.000,5.000,0
"03/09/08","01:04:15",104915.000,"cc",28305.203,6.00,6,0.100,93011.000,0.200,8945.000,0.300,1368.000,0.500,1235.000,1.000,356.000,5.000,0
"03/09/08","01:04:21",96596.000,"cc",28355.133,6.00,6,0.100,85670.000,0.200,8156.000,0.300,1296.000,0.500,1152.000,1.000,322.000,5.000,0
"03/09/08","01:04:27",119002.000,"cc",28280.895,6.00,6,0.100,105648.000,0.200,10274.000,0.300,1459.000,0.500,1233.000,1.000,388.000,5.000,0
"03/09/08","01:04:33",115347.000,"cc",28279.490,6.00,6,0.100,102603.000,0.200,9747.000,0.300,1430.000,0.500,1212.000,1.000,355.000,5.000,0
"03/09/08","01:04:39",159557.000,"cc",28377.313,6.00,6,0.100,142104.000,0.200,13928.000,0.300,1734.000,0.500,1379.000,1.000,412.000,5.000,0
"03/09/08","01:04:45",126887.000,"cc",28330.865,6.00,6,0.100,112324.000,0.200,11050.000,0.300,1626.000,0.500,1452.000,1.000,435.000,5.000,0
"03/09/08","01:04:51",100273.000,"cc",28286.227,6.00,6,0.100,88360.000,0.200,8677.000,0.300,1378.000,0.500,1426.000,1.000,432.000,5.000,0
"03/09/08","01:04:57",100914.000,"cc",28317.162,6.00,6,0.100,89696.000,0.200,8540.000,0.300,1226.000,0.500,1126.000,1.000,326.000,5.000,0
"03/09/08","01:05:03",121596.000,"cc",28291.619,6.00,6,0.100,108404.000,0.200,10477.000,0.300,1267.000,0.500,1086.000,1.000,362.000,5.000,0
"03/09/08","01:05:09",120003.000,"cc",28340.830,6.00,6,0.100,107040.000,0.200,10180.000,0.300,1306.000,0.500,1139.000,1.000,338.000,5.000,0
"03/09/08","01:05:15",146247.000,"cc",28346.795,6.00,6,0.100,130785.000,0.200,12542.000,0.300,1448.000,0.500,1142.000,1.000,330.000,5.000,0
"03/09/08","01:05:21",137887.000,"cc",28363.930,6.00,6,0.100,123146.000,0.200,11734.000,0.300,1488.000,0.500,1192.000,1.000,327.000,5.000,0
"03/09/08","01:05:27",141386.000,"cc",28375.459,6.00,6,0.100,125399.000,0.200,12316.000,0.300,1792.000,0.500,1437.000,1.000,442.000,5.000,0
"03/09/08","01:05:33",132293.000,"cc",28262.109,6.00,6,0.100,117111.000,0.200,11501.000,0.300,1714.000,0.500,1527.000,1.000,440.000,5.000,0
"03/09/08","01:05:39",167523.000,"cc",28297.582,6.00,6,0.100,148918.000,0.200,14979.000,0.300,1741.000,0.500,1474.000,1.000,411.000,5.000,0
"03/09/08","01:05:45",170404.000,"cc",28322.115,6.00,6,0.100,152107.000,0.200,14936.000,0.300,1714.000,0.500,1251.000,1.000,396.000,5.000,0
"03/09/08","01:05:51",214257.000,"cc",28281.234,6.00,6,0.100,191528.000,0.200,19128.000,0.300,1814.000,0.500,1400.000,1.000,387.000,5.000,0
"03/09/08","01:05:57",155848.000,"cc",28386.578,6.00,6,0.100,139089.000,0.200,13564.000,0.300,1527.000,0.500,1317.000,1.000,351.000,5.000,0
"03/09/08","01:06:03",151982.000,"cc",28303.568,6.00,6,0.100,135346.000,0.200,13282.000,0.300,1588.000,0.500,1352.000,1.000,414.000,5.000,0
"03/09/08","01:06:09",114196.000,"cc",28253.354,6.00,6,0.100,101467.000,0.200,9774.000,0.300,1317.000,0.500,1284.000,1.000,354.000,5.000,0
"03/09/08","01:06:15",127208.000,"cc",28322.955,6.00,6,0.100,112575.000,0.200,10871.000,0.300,1747.000,0.500,1543.000,1.000,472.000,5.000,0
"03/09/08","01:06:21",142032.000,"cc",28331.834,6.00,6,0.100,126022.000,0.200,12377.000,0.300,1711.000,0.500,1477.000,1.000,445.000,5.000,0
"03/09/08","01:06:27",109044.000,"cc",28298.229,6.00,6,0.100,96711.000,0.200,9169.000,0.300,1494.000,0.500,1297.000,1.000,373.000,5.000,0
"03/09/08","01:06:33",77221.000,"cc",28381.152,6.00,6,0.100,67339.000,0.200,6727.000,0.300,1374.000,0.500,1378.000,1.000,403.000,5.000,0
"03/09/08","01:06:39",100205.000,"cc",28367.781,6.00,6,0.100,88388.000,0.200,8599.000,0.300,1430.000,0.500,1378.000,1.000,410.000,5.000,0
"03/09/08","01:06:45",82243.000,"cc",28216.133,6.00,6,0.100,72562.000,0.200,7024.000,0.300,1154.000,0.500,1155.000,1.000,348.000,5.000,0
"03/09/08","01:06:51",143024.000,"cc",28298.363,6.00,6,0.100,127532.000,0.200,12449.000,0.300,1502.000,0.500,1214.000,1.000,327.000,5.000,0
"03/09/08","01:06:57",98181.000,"cc",28345.463,6.00,6,0.100,86780.000,0.200,8403.000,0.300,1384.000,0.500,1236.000,1.000,378.000,5.000,0
"03/09/08","01:07:03",96514.000,"cc",28272.184,6.00,6,0.100,85512.000,0.200,8197.000,0.300,1266.000,0.500,1181.000,1.000,358.000,5.000,0
"03/09/08","01:07:09",91464.000,"cc",28309.984,6.00,6,0.100,80813.000,0.200,7897.000,0.300,1231.000,0.500,1189.000,1.000,334.000,5.000,0
"03/09/08","01:07:15",123158.000,"cc",28354.115,6.00,6,0.100,109367.000,0.200,10541.000,0.300,1551.000,0.500,1311.000,1.000,388.000,5.000,0
"03/09/08","01:07:21",116504.000,"cc",28349.440,6.00,6,0.100,103788.000,0.200,9868.000,0.300,1320.000,0.500,1164.000,1.000,364.000,5.000,0
"03/09/08","01:07:27",133459.000,"cc",28309.086,6.00,6,0.100,118863.000,0.200,11461.000,0.300,1510.000,0.500,1251.000,1.000,374.000,5.000,0
"03/09/08","01:07:33",135704.000,"cc",28334.990,6.00,6,0.100,120411.000,0.200,11851.000,0.300,1628.000,0.500,1364.000,1.000,450.000,5.000,0
"03/09/08","01:07:39",122816.000,"cc",28279.809,6.00,6,0.100,109044.000,0.200,10849.000,0.300,1434.000,0.500,1146.000,1.000,343.000,5.000,0
"03/09/08","01:07:45",113795.000,"cc",28317.934,6.00,6,0.100,101160.000,0.200,9858.000,0.300,1316.000,0.500,1139.000,1.000,322.000,5.000,0
"03/09/08","01:07:51",183149.000,"cc",28322.670,6.00,6,0.100,162831.000,0.200,16754.000,0.300,1749.000,0.500,1406.000,1.000,409.000,5.000,0
"03/09/08","01:07:57",215547.000,"cc",28310.303,6.00,6,0.100,191955.000,0.200,20343.000,0.300,1761.000,0.500,1141.000,1.000,347.000,5.000,0
"03/09/08","01:08:03",228062.000,"cc",28290.551,6.00,6,0.100,202511.000,0.200,21457.000,0.300,2168.000,0.500,1469.000,1.000,457.000,5.000,0
"03/09/08","01:08:09",159514.000,"cc",28339.402,6.00,6,0.100,139701.000,0.200,14802.000,0.300,2348.000,0.500,2032.000,1.000,631.000,5.000,0
"03/09/08","01:08:15",244341.000,"cc",28383.441,6.00,6,0.100,211946.000,0.200,24930.000,0.300,3746.000,0.500,2885.000,1.000,834.000,5.000,0
"03/09/08","01:08:21",230723.000,"cc",28298.902,6.00,6,0.100,202138.000,0.200,22555.000,0.300,3066.000,0.500,2261.000,1.000,703.000,5.000,0
"03/09/08","01:08:27",195456.000,"cc",28325.076,6.00,6,0.100,171644.000,0.200,18502.000,0.300,2588.000,0.500,2077.000,1.000,645.000,5.000,0
"03/09/08","01:08:33",166732.000,"cc",28327.865,6.00,6,0.100,146347.000,0.200,15561.000,0.300,2380.000,0.500,1911.000,1.000,533.000,5.000,0
"03/09/08","01:08:39",192452.000,"cc",28323.750,6.00,6,0.100,168724.000,0.200,18332.000,0.300,2686.000,0.500,2081.000,1.000,629.000,5.000,0
"03/09/08","01:08:45",141095.000,"cc",28315.260,6.00,6,0.100,122579.000,0.200,13273.000,0.300,2391.000,0.500,2157.000,1.000,695.000,5.000,0
"03/09/08","01:08:51",114376.000,"cc",28319.988,6.00,6,0.100,99322.000,0.200,10467.000,0.300,2111.000,0.500,1899.000,1.000,577.000,5.000,0
"03/09/08","01:08:57",110836.000,"cc",28238.736,6.00,6,0.100,96012.000,0.200,10049.000,0.300,2214.000,0.500,1956.000,1.000,605.000,5.000,0
"03/09/08","01:09:03",115477.000,"cc",28317.066,6.00,6,0.100,100511.000,0.200,10473.000,0.300,2064.000,0.500,1849.000,1.000,580.000,5.000,0
"03/09/08","01:09:09",107775.000,"cc",28394.301,6.00,6,0.100,94452.000,0.200,9482.000,0.300,1789.000,0.500,1568.000,1.000,484.000,5.000,0
"03/09/08","01:09:15",122350.000,"cc",28311.494,6.00,6,0.100,107044.000,0.200,10936.000,0.300,2031.000,0.500,1801.000,1.000,538.000,5.000,0
"03/09/08","01:09:21",112717.000,"cc",28309.451,6.00,6,0.100,98344.000,0.200,10193.000,0.300,1935.000,0.500,1739.000,1.000,506.000,5.000,0
"03/09/08","01:09:27",114061.000,"cc",28290.248,6.00,6,0.100,99147.000,0.200,10268.000,0.300,2100.000,0.500,1937.000,1.000,609.000,5.000,0
"03/09/08","01:09:33",116701.000,"cc",28291.065,6.00,6,0.100,101297.000,0.200,10722.000,0.300,2197.000,0.500,1928.000,1.000,557.000,5.000,0
"03/09/08","01:09:39",238846.000,"cc",28310.740,6.00,6,0.100,207477.000,0.200,25484.000,0.300,3005.000,0.500,2175.000,1.000,705.000,5.000,0
"03/09/08","01:09:45",299146.000,"cc",28314.307,6.00,6,0.100,251198.000,0.200,41100.000,0.300,3649.000,0.500,2463.000,1.000,736.000,5.000,0
"03/09/08","01:09:51",325405.000,"cc",28278.885,6.00,6,0.100,272894.000,0.200,46166.000,0.300,3626.000,0.500,2074.000,1.000,645.000,5.000,0
"03/09/08","01:09:57",322644.000,"cc",28369.043,6.00,6,0.100,284158.000,0.200,33457.000,0.300,2776.000,0.500,1731.000,1.000,522.000,5.000,0
"03/09/08","01:10:03",258832.000,"cc",28346.182,6.00,6,0.100,229995.000,0.200,24794.000,0.300,2083.000,0.500,1518.000,1.000,442.000,5.000,0
"03/09/08","01:10:09",184000.000,"cc",28280.309,6.00,6,0.100,162822.000,0.200,16808.000,0.300,2140.000,0.500,1714.000,1.000,516.000,5.000,0
"03/09/08","01:10:15",188848.000,"cc",28333.734,6.00,6,0.100,167022.000,0.200,17225.000,0.300,2274.000,0.500,1773.000,1.000,554.000,5.000,0
"03/09/08","01:10:21",243746.000,"cc",28323.250,6.00,6,0.100,215295.000,0.200,23369.000,0.300,2489.000,0.500,2023.000,1.000,570.000,5.000,0
"03/09/08","01:10:27",217790.000,"cc",28346.846,6.00,6,0.100,193664.000,0.200,20180.000,0.300,1984.000,0.500,1503.000,1.000,459.000,5.000,0
"03/09/08","01:10:33",183608.000,"cc",28334.254,6.00,6,0.100,161916.000,0.200,17026.000,0.300,2272.000,0.500,1846.000,1.000,548.000,5.000,0
"03/09/08","01:10:39",167198.000,"cc",28327.617,6.00,6,0.100,147227.000,0.200,15294.000,0.300,2220.000,0.500,1916.000,1.000,541.000,5.000,0
"03/09/08","01:10:45",105090.000,"cc",28290.799,6.00,6,0.100,90113.000,0.200,9798.000,0.300,2394.000,0.500,2121.000,1.000,664.000,5.000,0
"03/09/08","01:10:51",109071.000,"cc",28353.900,6.00,6,0.100,96755.000,0.200,9237.000,0.300,1437.000,0.500,1278.000,1.000,364.000,5.000,0
"03/09/08","01:10:57",122511.000,"cc",28270.889,6.00,6,0.100,106526.000,0.200,11095.000,0.300,2192.000,0.500,2069.000,1.000,629.000,5.000,0
"03/09/08","01:11:03",98702.000,"cc",28296.734,6.00,6,0.100,82402.000,0.200,9792.000,0.300,2931.000,0.500,2749.000,1.000,828.000,5.000,0
"03/09/08","01:11:09",107409.000,"cc",28307.996,6.00,6,0.100,89321.000,0.200,10929.000,0.300,3256.000,0.500,3001.000,1.000,902.000,5.000,0
"03/09/08","01:11:15",143950.000,"cc",28333.250,6.00,6,0.100,125417.000,0.200,13515.000,0.300,2370.000,0.500,1988.000,1.000,660.000,5.000,0
"03/09/08","01:11:21",115062.000,"cc",28364.975,6.00,6,0.100,98504.000,0.200,11118.000,0.300,2522.000,0.500,2220.000,1.000,698.000,5.000,0
"03/09/08","01:11:27",117227.000,"cc",28290.190,6.00,6,0.100,100516.000,0.200,11238.000,0.300,2530.000,0.500,2270.000,1.000,673.000,5.000,0
"03/09/08","01:11:33",308932.000,"cc",28375.104,6.00,6,0.100,269517.000,0.200,34048.000,0.300,3039.000,0.500,1785.000,1.000,543.000,5.000,0
"03/09/08","01:11:39",245359.000,"cc",28297.305,6.00,6,0.100,215781.000,0.200,24784.000,0.300,2560.000,0.500,1719.000,1.000,515.000,5.000,0
"03/09/08","01:11:45",244670.000,"cc",28302.438,6.00,6,0.100,214910.000,0.200,24705.000,0.300,2677.000,0.500,1834.000,1.000,544.000,5.000,0
"03/09/08","01:11:51",313583.000,"cc",28249.481,6.00,6,0.100,273540.000,0.200,34193.000,0.300,3243.000,0.500,2018.000,1.000,589.000,5.000,0
"03/09/08","01:11:57",268259.000,"cc",28273.016,6.00,6,0.100,234064.000,0.200,28343.000,0.300,3077.000,0.500,2148.000,1.000,627.000,5.000,0
"03/09/08","01:12:03",231492.000,"cc",28335.162,6.00,6,0.100,202529.000,0.200,23208.000,0.300,2926.000,0.500,2199.000,1.000,630.000,5.000,0
"03/09/08","01:12:09",192761.000,"cc",28383.268,6.00,6,0.100,167516.000,0.200,19060.000,0.300,2957.000,0.500,2430.000,1.000,798.000,5.000,0
"03/09/08","01:12:15",179772.000,"cc",28331.592,6.00,6,0.100,157093.000,0.200,17253.000,0.300,2630.000,0.500,2137.000,1.000,659.000,5.000,0
"03/09/08","01:12:21",124958.000,"cc",28303.570,6.00,6,0.100,107393.000,0.200,11952.000,0.300,2542.000,0.500,2305.000,1.000,766.000,5.000,0
"03/09/08","01:12:27",116935.000,"cc",28354.971,6.00,6,0.100,100771.000,0.200,11144.000,0.300,2319.000,0.500,2054.000,1.000,647.000,5.000,0
"03/09/08","01:12:33",79493.000,"cc",28345.123,6.00,6,0.100,65668.000,0.200,8100.000,0.300,2489.000,0.500,2496.000,1.000,740.000,5.000,0
"03/09/08","01:12:39",114452.000,"cc",28293.494,6.00,6,0.100,98783.000,0.200,10697.000,0.300,2233.000,0.500,2061.000,1.000,678.000,5.000,0
"03/09/08","01:12:45",100172.000,"cc",28367.469,6.00,6,0.100,86553.000,0.200,9241.000,0.300,2012.000,0.500,1770.000,1.000,596.000,5.000,0
"03/09/08","01:12:51",88700.000,"cc",28327.682,6.00,6,0.100,75352.000,0.200,8461.000,0.300,2207.000,0.500,2028.000,1.000,652.000,5.000,0
"03/09/08","01:12:57",92699.000,"cc",28270.102,6.00,6,0.100,79832.000,0.200,8488.000,0.300,1944.000,0.500,1832.000,1.000,603.000,5.000,0
"03/09/08","01:13:03",114370.000,"cc",28292.451,6.00,6,0.100,100306.000,0.200,10235.000,0.300,1768.000,0.500,1585.000,1.000,476.000,5.000,0
"03/09/08","01:13:09",86587.000,"cc",28272.789,6.00,6,0.100,73811.000,0.200,8015.000,0.300,2141.000,0.500,2001.000,1.000,619.000,5.000,0
"03/09/08","01:13:15",71726.000,"cc",28344.949,6.00,6,0.100,59455.000,0.200,7249.000,0.300,2231.000,0.500,2151.000,1.000,640.000,5.000,0
"03/09/08","01:13:21",65652.000,"cc",28359.971,6.00,6,0.100,54488.000,0.200,6457.000,0.300,2120.000,0.500,1960.000,1.000,627.000,5.000,0
"03/09/08","01:13:27",74704.000,"cc",28281.020,6.00,6,0.100,62349.000,0.200,7169.000,0.300,2360.000,0.500,2183.000,1.000,643.000,5.000,0
"03/09/08","01:13:33",78553.000,"cc",28358.731,6.00,6,0.100,66910.000,0.200,7431.000,0.300,1969.000,0.500,1730.000,1.000,513.000,5.000,0
"03/09/08","01:13:39",80004.000,"cc",28292.125,6.00,6,0.100,68127.000,0.200,7583.000,0.300,1946.000,0.500,1830.000,1.000,518.000,5.000,0
"03/09/08","01:13:45",94891.000,"cc",28307.625,6.00,6,0.100,82189.000,0.200,8727.000,0.300,1837.000,0.500,1679.000,1.000,459.000,5.000,0
"03/09/08","01:13:51",100940.000,"cc",28352.488,6.00,6,0.100,87428.000,0.200,9386.000,0.300,1883.000,0.500,1701.000,1.000,542.000,5.000,0
"03/09/08","01:13:57",95502.000,"cc",28260.918,6.00,6,0.100,78235.000,0.200,9884.000,0.300,3321.000,0.500,3081.000,1.000,981.000,5.000,0
"03/09/08","01:14:03",89211.000,"cc",28352.322,6.00,6,0.100,75516.000,0.200,8544.000,0.300,2376.000,0.500,2161.000,1.000,614.000,5.000,0
"03/09/08","01:14:09",71344.000,"cc",28329.740,6.00,6,0.100,60631.000,0.200,6676.000,0.300,1794.000,0.500,1715.000,1.000,528.000,5.000,0
"03/09/08","01:14:15",68853.000,"cc",28311.928,6.00,6,0.100,56117.000,0.200,7126.000,0.300,2587.000,0.500,2287.000,1.000,736.000,5.000,0
"03/09/08","01:14:21",89430.000,"cc",28265.926,6.00,6,0.100,75655.000,0.200,8670.000,0.300,2292.000,0.500,2156.000,1.000,657.000,5.000,0
"03/09/08","01:14:27",90375.000,"cc",28297.008,6.00,6,0.100,72991.000,0.200,9701.000,0.300,3460.000,0.500,3257.000,1.000,966.000,5.000,0
"03/09/08","01:14:33",86723.000,"cc",28338.084,6.00,6,0.100,73861.000,0.200,8150.000,0.300,2093.000,0.500,2022.000,1.000,597.000,5.000,0
"03/09/08","01:14:39",114684.000,"cc",28294.863,6.00,6,0.100,98683.000,0.200,10796.000,0.300,2367.000,0.500,2132.000,1.000,706.000,5.000,0
"03/09/08","01:14:45",127317.000,"cc",28299.275,6.00,6,0.100,111571.000,0.200,11486.000,0.300,2055.000,0.500,1690.000,1.000,515.000,5.000,0
"03/09/08","01:14:51",151015.000,"cc",28326.250,6.00,6,0.100,132958.000,0.200,13783.000,0.300,2041.000,0.500,1721.000,1.000,512.000,5.000,0
"03/09/08","01:14:57",126283.000,"cc",28358.691,6.00,6,0.100,110406.000,0.200,11513.000,0.300,1975.000,0.500,1796.000,1.000,593.000,5.000,0
"03/09/08","01:15:03",123248.000,"cc",28362.672,6.00,6,0.100,108228.000,0.200,11111.000,0.300,1825.000,0.500,1603.000,1.000,481.000,5.000,0
"03/09/08","01:15:09",165422.000,"cc",28245.936,6.00,6,0.100,146258.000,0.200,15091.000,0.300,1952.000,0.500,1591.000,1.000,530.000,5.000,0
"03/09/08","01:15:15",147718.000,"cc",28390.410,6.00,6,0.100,130491.000,0.200,13381.000,0.300,1820.000,0.500,1568.000,1.000,458.000,5.000,0
"03/09/08","01:15:21",117338.000,"cc",28333.770,6.00,6,0.100,101576.000,0.200,10833.000,0.300,2212.000,0.500,2071.000,1.000,646.000,5.000,0
"03/09/08","01:15:27",113701.000,"cc",28263.008,6.00,6,0.100,98675.000,0.200,10455.000,0.300,2164.000,0.500,1849.000,1.000,558.000,5.000,0
"03/09/08","01:15:33",112191.000,"cc",28277.322,6.00,6,0.100,96564.000,0.200,10472.000,0.300,2309.000,0.500,2150.000,1.000,696.000,5.000,0
"03/09/08","01:15:39",106430.000,"cc",28367.809,6.00,6,0.100,92833.000,0.200,9639.000,0.300,1762.000,0.500,1708.000,1.000,488.000,5.000,0
"03/09/08","01:15:45",143972.000,"cc",28272.510,6.00,6,0.100,122186.000,0.200,16531.000,0.300,2528.000,0.500,2067.000,1.000,660.000,5.000,0
"03/09/08","01:15:51",176052.000,"cc",28340.703,6.00,6,0.100,152109.000,0.200,17704.000,0.300,3022.000,0.500,2433.000,1.000,784.000,5.000,0
"03/09/08","01:15:57",117291.000,"cc",28334.205,6.00,6,0.100,99309.000,0.200,11564.000,0.300,2996.000,0.500,2638.000,1.000,784.000,5.000,0
"03/09/08","01:16:03",138260.000,"cc",28308.690,6.00,6,0.100,119134.000,0.200,13369.000,0.300,2631.000,0.500,2392.000,1.000,734.000,5.000,0
"03/09/08","01:16:09",120606.000,"cc",28332.059,6.00,6,0.100,105138.000,0.200,10968.000,0.300,2075.000,0.500,1904.000,1.000,521.000,5.000,0